Location: Gallinara
(44.0333°N, 8.2333°E)
Time: 10:40:54
(UTC+00:00)

Cosmos 2278 Rocket - Pass Details

Date: 25 September 2020
Orbit: 841 x 845 km, 71.0° (Epoch: 24 October)

Event Time Altitude Azimuth Distance (km) Brightness Sun altitude
Rises 04:34:27 0° 338° (NNW) 3,409 5.2 -8.6°
Reaches altitude 10° 04:37:00 10° 344° (NNW) 2,471 4.5 -8.2°
Maximum altitude 04:42:29 49° 59° (ENE) 1,082 3.3 -7.2°
Drops below altitude 10° 04:47:57 10° 134° (SE) 2,459 5.3 -6.2°
Sets 04:50:28 0° 140° (SE) 3,390 5.9 -5.8°
